Location: Oshawa
(43.9000°N, 78.8670°W)
Time: 15:46:42
(UTC-04:00)

Courier 1B - All Passes

Search period start: 07 July 2015 00:00
Search period end: 17 July 2015 00:00
Orbit: 963 x 1209 km, 28.3° (Epoch: 07 July)

Date Brightness Start Highest point End Pass type
(mag) Time Alt. Az. Time Alt. Az. Time Alt. Az.
07 Jul - 03:35:46 10° SSW 03:40:49 19° SSE 03:45:56 10° ESE visible
07 Jul - 05:28:06 10° SW 05:34:04 24° S 05:39:52 10° SE daylight
07 Jul - 07:22:07 10° WSW 07:27:15 19° SSW 07:32:08 10° SSE daylight
08 Jul - 02:42:50 10° SSW 02:47:12 16° SSE 02:51:43 10° SE visible
08 Jul - 04:34:28 10° SW 04:40:25 24° S 04:46:16 10° SE visible
08 Jul - 06:28:03 10° WSW 06:33:39 22° S 06:39:04 10° SE daylight
08 Jul - 08:24:16 10° SW 08:26:41 12° SSW 08:28:49 10° S daylight
09 Jul - 01:50:21 10° S 01:53:35 13° SSE 01:57:03 10° SE visible
09 Jul - 03:40:58 10° SW 03:46:45 23° S 03:52:32 10° ESE visible
09 Jul - 05:34:07 10° SW 05:40:02 24° S 05:45:47 10° SE daylight
09 Jul - 07:29:06 10° SW 07:33:09 15° SSW 07:36:56 10° S daylight
10 Jul - 02:47:39 10° SSW 02:53:06 21° SSE 02:58:38 10° ESE visible
10 Jul - 04:40:19 10° SW 04:46:22 25° S 04:52:20 10° SE visible
10 Jul - 06:34:38 10° WSW 06:39:35 18° SSW 06:44:18 10° SSE daylight
11 Jul - 01:54:34 10° SSW 01:59:28 18° SSE 02:04:32 10° ESE visible
11 Jul - 03:46:39 10° SW 03:52:42 25° S 03:58:45 10° SE visible
11 Jul - 05:40:28 10° WSW 05:45:58 21° SSW 05:51:18 10° SSE daylight
12 Jul - 01:01:49 10° SSW 01:05:52 15° SSE 01:10:07 10° SE visible
12 Jul - 02:53:07 10° SW 02:59:02 24° S 03:05:01 10° SE visible
12 Jul - 04:46:29 10° WSW 04:52:19 23° S 04:58:04 10° SE visible
12 Jul - 06:42:05 10° SW 06:45:27 13° SSW 06:48:34 10° S daylight
13 Jul - 00:09:43 10° S 00:12:17 12° SSE 00:15:08 10° SE night (unlit)
13 Jul - 01:59:46 10° SW 02:05:23 22° S 02:11:08 10° ESE visible
13 Jul - 03:52:40 10° SW 03:58:39 24° S 04:04:38 10° SE visible
13 Jul - 05:47:20 10° SW 05:51:52 16° SSW 05:56:11 10° SSE daylight
14 Jul - 01:06:36 10° SSW 01:11:45 20° SSE 01:17:06 10° ESE visible
14 Jul - 02:58:59 10° SW 03:04:59 25° S 03:11:03 10° SE visible
14 Jul - 04:53:02 10° WSW 04:58:15 19° SSW 05:03:19 10° SSE visible
15 Jul - 00:13:42 10° SSW 00:18:09 17° SSE 00:22:51 10° SE night (unlit)
15 Jul - 02:05:27 10° SW 02:11:19 24° S 02:17:21 10° SE visible
15 Jul - 03:59:01 10° WSW 04:04:36 21° SSW 04:10:09 10° SE visible
15 Jul - 05:55:46 10° SW 05:57:43 11° SSW 05:59:22 10° SSW daylight
15 Jul - 23:21:13 10° S 23:24:36 14° SSE 23:28:15 10° SE visible
16 Jul - 01:12:03 10° SW 01:17:41 23° S 01:23:30 10° SE visible
16 Jul - 03:05:10 10° WSW 03:10:57 23° S 03:16:46 10° SE visible
16 Jul - 05:00:20 10° SW 05:04:08 14° SSW 05:07:43 10° S visible
16 Jul - 22:29:55 10° SSE 22:31:05 10° SSE 22:32:32 10° SE visible
